Track YAOGAN 30 now! 10-day predictions YAOGAN 30 is classified as:
1 41473U 16029A 25196.90314646 .00000409 00000-0 66316-4 0 9992 2 41473 97.9524 248.0807 0014915 234.2220 125.7604 14.76314230494059